TRANSPORTER-15 DJ (66770 NORAD) Tracking and Keplerian Element Data

This shows tracking and keplerian element data for the satellite.

Feedback or suggestion? Click here.




ElementValue
Catalog66770
NameTRANSPORTER-15 DJ
Epoch Orbit317
Epoch Day353.64891162
Epoch Year2025
RAAN65.3356
Inclination97.4459
Eccentricity0.0002954
Argument of Perigee130.1383
Mean Anonmoly230.011
Mean Motion15.18367258
Decay Rate2.121E-05
L11 66770U 25276DJ 25353.64891162 .00002121 00000+0 10651-3 0 9994
L22 66770 97.4459 65.3356 0002954 130.1383 230.0110 15.18367258 3177



Live tracking and technical data element details for TRANSPORTER-15 DJ (NORAD 66770). TRANSPORTER-15 DJ can be tracked NOW for your location showing map with azimuth and elevation plus other details from your city location.







IsCatalogInMostPopularTable: catalog: 66770, numindb: 16
Update: records affected: 1



GetName: 66770 TRANSPORTER-15 DJ

Hit Count: updated at: Sat, 11 Apr 2026 21:02:11 GMT